User: anonymous   Login
Location: Columbia
(38.9520°N, 92.3340°W)
Time: 06:07:42
(UTC-06:00)
Language:

SJ-11-01 - Orbit

View from above orbital plane
View from above orbital plane
View from above satellite
View from above satellite

Ground track
Ground track

The orbit data is extracted from the following two-line orbital elements,

1 36088U 09061A   17345.76363599  .00000072  00000-0  24597-4 0  9999
2 36088  98.1140  30.0455 0012914  72.9634 287.2963 14.59990858430557
Epoch (UTC): 11 December 2017 18:19:38
Eccentricity: 0.0012914
inclination: 98.1140°
perigee height: 684 km
apogee height: 702 km
right ascension of ascending node: 30.0455°
argument of perigee: 72.9634°
revolutions per day: 14.59990858
mean anomaly at epoch: 287.2963°
orbit number at epoch: 43055

The dashed part of the orbit path shows where the satellite is in the earth's shadow,  

DLR